Regional Weather Roundup
Issued by NWS Jackson, KY

Home | Current Version | Previous Version | Graphics & Text | Print | Product List | Glossary On
Versions: 1 2 3 4 5 6 7 8 9 10 11 12 13 14 15 16 17 18 19 20 21 22 23 24 25 26 27
000
ASUS43 KJKL 191010
RWRJKL

EAST KENTUCKY HOURLY WEATHER ROUNDUP
NATIONAL WEATHER SERVICE JACKSON KY
600 AM EDT TUE SEP 19 2017

NOTE: "FAIR" INDICATES FEW OR NO CLOUDS BELOW 12,000 FEET WITH
NO SIGNIFICANT WEATHER AND/OR OBSTRUCTIONS TO VISIBILITY.

* THESE REPORTS ARE NOT UNDER NWS QUALITY CONTROL AND MAY NOT
  REPORT WEATHER SUCH AS PRECIPITATION AND FOG.

KYZ079-080-083-085-087-088-110-112-115-119-120-191100
...EASTERN KENTUCKY...

CITY           SKY/WX    TMP DP  RH WIND       PRES   REMARKS
JACKSON        CLOUDY    66  60  81 SE3       30.02R
LONDON         CLOUDY    65  63  93 CALM      30.00F FOG
SOMERSET*      FOG       61  61 100 CALM      30.01S VSB 3/4
MONTICELLO*    PTCLDY    61  59  94 N9        30.01S FOG
WILLIAMSBURG*  CLOUDY    63  63 100 CALM      30.01S VSB 1/4
MIDDLESBORO*   FOG       62  62 100 NW3       30.04R VSB 3/4
HARLAN APT*      N/A     59  59 100 CALM      30.05R
PIKE CO APT*     N/A     60  60 100 S3        30.03R
BIG SANDY APT* SUNNY     62  62 100 CALM      30.03R
MOREHEAD APT*  CLOUDY    64  63  94 SE3       30.01S
$$

KYZ035-036-041-042-044-050-067-078-099-191100
...CENTRAL KENTUCKY...

CITY           SKY/WX    TMP DP  RH WIND       PRES   REMARKS
MT STERLING*   CLOUDY    66  63  88 S3        30.01S
FLEMING/MASON* CLEAR     65  63  93 CALM      30.00F
DANVILLE*      CLEAR     64  64 100 CALM      30.00S
LEXINGTON      CLOUDY    70  64  81 SE6       29.99S
FRANKFORT      MOCLDY    70  66  87 SE5       29.96F
LOUISVILLE     CLOUDY    73  69  87 E3        29.94S
LEBANON*         N/A     68  64  88 S5        29.98R
GLASGOW*       MOCLDY   N/A N/A N/A CALM      29.97R HAZE
BOWLING GREEN  CLOUDY    66  66 100 CALM      29.96S FOG
$$

KYZ091>093-OHZ055-061-077-WVZ005-015-034-035-042-191100
...SOUTHERN OHIO/WEST VIRGINIA...

CITY           SKY/WX    TMP DP  RH WIND       PRES   REMARKS
COVINGTON      CLOUDY    69  67  93 S7        29.96F
COLUMBUS       CLOUDY    69  66  90 SE3       29.98S
DAYTON         CLOUDY    67  65  93 S6        29.98F
WILMINGTON     MOCLDY    68  65  90 CALM      29.99R
HUNTINGTON     MOCLDY    63  61  93 CALM      30.00R FOG
CHARLESTON     FOG       62  61  96 CALM      30.01R VSB 1/4
PINEVILLE*     CLOUDY    60  59  97 MISG      30.10S FOG
BECKLEY        CLEAR     59  57  93 CALM      30.07S
BLUEFIELD      CLEAR     60  57  89 CALM      30.09S
LOGAN CO APT*    N/A     63  63 100 CALM      30.03S FOG
$$

VAZ002-007-008-TNZ017-027-036-066-071-191100
...SOUTHWEST VIRGINIA/EAST TENNESSEE...

CITY           SKY/WX    TMP DP  RH WIND       PRES   REMARKS
WISE*          CLEAR     59  59 100 S5        30.09S
JONESVILLE*    PTSUNNY   57  57 100 CALM      30.06R FOG
ABINGDON*      CLEAR     62  60  94 E5        30.07R
BRISTOL        PTCLDY    56  56 100 CALM      30.05R FOG
MORRISTOWN*    SUNNY     63  61  94 CALM      30.01S
SEVIERVILLE*   SUNNY     57  57 100 CALM      30.01S
KNOXVILLE      CLEAR     64  61  90 CALM      30.00S
LAFOLLETTE*    FOG       61  61 100 CALM      30.05S VSB 0
OAK RIDGE      FOG       64  62  93 CALM      30.02S VSB 1/2
CROSSVILLE     CLEAR     59  58  96 CALM      30.05R
NASHVILLE      PTCLDY    68  66  93 S3        29.97S
$$

...KEY TO REMARKS...
VSB - VISIBILITY IN MILES
WCI - WIND CHILL INDEX
HX  - HEAT INDEX

$$




USA.gov is the U.S. government's official web portal to all federal, state and local government web resources and services.